Tiempo cada hora Abischthof

Hoy, 22 Octubre, Jueves

Tiempo Temperatura Precipitaciones Viento Presión Humedad
00:00 +12°C° 0 mm 1 mps 726 mmHg 73%
01:00 +11°C° 0 mm 0 mps 726 mmHg 75%
02:00 +10°C° 0 mm 0 mps 725 mmHg 76%
03:00 +11°C° 0 mm 1 mps 725 mmHg 76%
04:00 +11°C° 0 mm 1 mps 725 mmHg 76%
05:00 +10°C° 0 mm 1 mps 726 mmHg 77%
06:00 +9°C° 0 mm 0 mps 726 mmHg 78%
07:00 +9°C° 0 mm 0 mps 726 mmHg 78%
08:00 +11°C° 0 mm 0 mps 726 mmHg 73%
09:00 +13°C° 0 mm 0 mps 727 mmHg 69%
10:00 +15°C° 0 mm 1 mps 727 mmHg 64%
11:00 +18°C° 0 mm 1 mps 727 mmHg 61%
12:00 +19°C° 0 mm 1 mps 727 mmHg 58%
13:00 +21°C° 0 mm 1 mps 727 mmHg 55%
14:00 +20°C° 0 mm 1 mps 727 mmHg 59%
15:00 +19°C° 0 mm 1 mps 726 mmHg 64%
16:00 +19°C° 0 mm 1 mps 726 mmHg 68%
17:00 +16°C° 0 mm 1 mps 726 mmHg 74%
18:00 +15°C° 0 mm 1 mps 726 mmHg 80%
19:00 +13°C° 0 mm 1 mps 726 mmHg 86%
20:00 +13°C° 0 mm 1 mps 726 mmHg 86%
21:00 +14°C° 0 mm 1 mps 726 mmHg 85%
22:00 +14°C° 0 mm 1 mps 726 mmHg 85%
23:00 +14°C° 0 mm 1 mps 726 mmHg 85%

Mañana, 23 Octubre, Viernes

Tiempo Temperatura Precipitaciones Viento Presión Humedad
00:00 +14°C° 0 mm 1 mps 726 mmHg 85%
01:00 +14°C° 0 mm 1 mps 726 mmHg 86%
02:00 +13°C° 0.5 mm 1 mps 725 mmHg 88%
03:00 +13°C° 0.5 mm 1 mps 725 mmHg 91%
04:00 +13°C° 0.5 mm 1 mps 724 mmHg 94%
05:00 +13°C° 1.4 mm 1 mps 724 mmHg 95%
06:00 +13°C° 1.4 mm 1 mps 724 mmHg 96%
07:00 +13°C° 1.4 mm 1 mps 724 mmHg 97%
08:00 +13°C° 1.2 mm 1 mps 724 mmHg 97%
09:00 +13°C° 1.2 mm 1 mps 724 mmHg 96%
10:00 +14°C° 1.2 mm 1 mps 723 mmHg 96%
11:00 +14°C° 0.8 mm 1 mps 723 mmHg 95%
12:00 +14°C° 0.8 mm 1 mps 723 mmHg 95%
13:00 +15°C° 0.8 mm 1 mps 723 mmHg 94%
14:00 +14°C° 2.2 mm 2 mps 723 mmHg 95%
15:00 +13°C° 2.2 mm 3 mps 723 mmHg 96%
16:00 +13°C° 2.2 mm 3 mps 723 mmHg 96%
17:00 +13°C° 2.2 mm 4 mps 724 mmHg 96%
18:00 +13°C° 2.2 mm 4 mps 724 mmHg 95%
19:00 +13°C° 2.2 mm 4 mps 725 mmHg 94%
20:00 +12°C° 0 mm 3 mps 725 mmHg 94%
21:00 +13°C° 0 mm 2 mps 725 mmHg 94%
22:00 +13°C° 0 mm 2 mps 726 mmHg 94%
23:00 +13°C° 0.1 mm 1 mps 726 mmHg 94%

Pasado mañana, 24 Octubre, Sábado

Tiempo Temperatura Precipitaciones Viento Presión Humedad
00:00 +12°C° 0.1 mm 1 mps 726 mmHg 94%
01:00 +12°C° 0.1 mm 1 mps 726 mmHg 95%
02:00 +12°C° 0.1 mm 1 mps 726 mmHg 95%
03:00 +12°C° 0.1 mm 1 mps 726 mmHg 96%
04:00 +12°C° 0.1 mm 1 mps 727 mmHg 96%
05:00 +11°C° 0 mm 1 mps 727 mmHg 96%
06:00 +11°C° 0 mm 1 mps 727 mmHg 96%
07:00 +11°C° 0 mm 1 mps 727 mmHg 96%
08:00 +12°C° 0 mm 1 mps 727 mmHg 93%
09:00 +13°C° 0 mm 1 mps 728 mmHg 91%
10:00 +14°C° 0 mm 2 mps 728 mmHg 88%
11:00 +15°C° 0 mm 2 mps 728 mmHg 83%
12:00 +16°C° 0 mm 2 mps 727 mmHg 78%
13:00 +16°C° 0 mm 2 mps 727 mmHg 74%
14:00 +16°C° 0 mm 1 mps 727 mmHg 75%
15:00 +16°C° 0 mm 1 mps 727 mmHg 76%
16:00 +16°C° 0 mm 1 mps 726 mmHg 77%
17:00 +14°C° 0 mm 1 mps 726 mmHg 82%
18:00 +11°C° 0 mm 0 mps 726 mmHg 87%
19:00 +10°C° 0 mm 0 mps 726 mmHg 92%
20:00 +9°C° 0 mm 0 mps 726 mmHg 93%
21:00 +9°C° 0 mm 0 mps 726 mmHg 93%
22:00 +9°C° 0 mm 0 mps 726 mmHg 93%
23:00 +8°C° 0 mm 0 mps 726 mmHg 94%

, 25 Octubre, Domingo

Tiempo Temperatura Precipitaciones Viento Presión Humedad
00:00 +8°C° 0 mm 0 mps 725 mmHg 94%
01:00 +8°C° 0 mm 0 mps 725 mmHg 94%
02:00 +8°C° 0 mm 0 mps 725 mmHg 95%
03:00 +7°C° 0 mm 0 mps 724 mmHg 95%
04:00 +7°C° 0 mm 0 mps 724 mmHg 95%
05:00 +7°C° 0 mm 0 mps 724 mmHg 95%
06:00 +7°C° 0 mm 0 mps 724 mmHg 95%
07:00 +7°C° 0 mm 0 mps 723 mmHg 95%
08:00 +9°C° 0 mm 0 mps 723 mmHg 90%
09:00 +10°C° 0 mm 0 mps 723 mmHg 84%
10:00 +13°C° 0 mm 1 mps 723 mmHg 79%
11:00 +15°C° 0 mm 1 mps 723 mmHg 73%
12:00 +16°C° 0 mm 1 mps 722 mmHg 68%
13:00 +19°C° 0 mm 1 mps 722 mmHg 62%
14:00 +18°C° 0 mm 1 mps 721 mmHg 66%
15:00 +16°C° 0 mm 0 mps 721 mmHg 70%
16:00 +15°C° 0 mm 0 mps 720 mmHg 73%
17:00 +14°C° 0 mm 0 mps 720 mmHg 78%
18:00 +13°C° 0 mm 1 mps 720 mmHg 83%
19:00 +11°C° 0 mm 1 mps 719 mmHg 88%
20:00 +11°C° 0 mm 1 mps 719 mmHg 89%
21:00 +10°C° 0 mm 1 mps 719 mmHg 89%
22:00 +10°C° 0 mm 1 mps 719 mmHg 90%
23:00 +9°C° 0 mm 0 mps 719 mmHg 90%

25 Octubre, Domingo

Tiempo Temperatura Precipitaciones Viento Presión Humedad
00:00 +8°C° 0 mm 0 mps 725 mmHg 94%
01:00 +8°C° 0 mm 0 mps 725 mmHg 94%
02:00 +8°C° 0 mm 0 mps 725 mmHg 95%
03:00 +7°C° 0 mm 0 mps 724 mmHg 95%
04:00 +7°C° 0 mm 0 mps 724 mmHg 95%
05:00 +7°C° 0 mm 0 mps 724 mmHg 95%
06:00 +7°C° 0 mm 0 mps 724 mmHg 95%
07:00 +7°C° 0 mm 0 mps 723 mmHg 95%
08:00 +9°C° 0 mm 0 mps 723 mmHg 90%
09:00 +10°C° 0 mm 0 mps 723 mmHg 84%
10:00 +13°C° 0 mm 1 mps 723 mmHg 79%
11:00 +15°C° 0 mm 1 mps 723 mmHg 73%
12:00 +16°C° 0 mm 1 mps 722 mmHg 68%
13:00 +19°C° 0 mm 1 mps 722 mmHg 62%
14:00 +18°C° 0 mm 1 mps 721 mmHg 66%
15:00 +16°C° 0 mm 0 mps 721 mmHg 70%
16:00 +15°C° 0 mm 0 mps 720 mmHg 73%
17:00 +14°C° 0 mm 0 mps 720 mmHg 78%
18:00 +13°C° 0 mm 1 mps 720 mmHg 83%
19:00 +11°C° 0 mm 1 mps 719 mmHg 88%
20:00 +11°C° 0 mm 1 mps 719 mmHg 89%
21:00 +10°C° 0 mm 1 mps 719 mmHg 89%
22:00 +10°C° 0 mm 1 mps 719 mmHg 90%
23:00 +9°C° 0 mm 0 mps 719 mmHg 90%

26 Octubre, Lunes

Tiempo Temperatura Precipitaciones Viento Presión Humedad
00:00 +9°C° 0 mm 0 mps 718 mmHg 90%
01:00 +9°C° 0 mm 0 mps 718 mmHg 90%
02:00 +8°C° 0 mm 0 mps 718 mmHg 90%
03:00 +8°C° 0 mm 0 mps 717 mmHg 91%
04:00 +8°C° 0 mm 0 mps 717 mmHg 91%
05:00 +9°C° 0 mm 1 mps 717 mmHg 92%
06:00 +9°C° 0 mm 1 mps 717 mmHg 92%
07:00 +9°C° 0 mm 1 mps 717 mmHg 92%
08:00 +8°C° 0.7 mm 2 mps 717 mmHg 93%
09:00 +8°C° 0.7 mm 2 mps 717 mmHg 94%
10:00 +8°C° 0.7 mm 3 mps 717 mmHg 94%
11:00 +8°C° 1.2 mm 2 mps 717 mmHg 94%
12:00 +8°C° 1.2 mm 2 mps 717 mmHg 94%
13:00 +7°C° 1.2 mm 2 mps 717 mmHg 94%
14:00 +7°C° 1.5 mm 2 mps 717 mmHg 95%
15:00 +7°C° 1.5 mm 2 mps 717 mmHg 95%
16:00 +7°C° 1.5 mm 2 mps 717 mmHg 96%
17:00 +7°C° 1.5 mm 2 mps 717 mmHg 96%
18:00 +6°C° 1.5 mm 2 mps 717 mmHg 96%
19:00 +7°C° 1.5 mm 1 mps 718 mmHg 96%
20:00 +7°C° 1.4 mm 1 mps 718 mmHg 96%
21:00 +7°C° 1.4 mm 1 mps 718 mmHg 96%
22:00 +7°C° 1.4 mm 1 mps 718 mmHg 96%
23:00 +7°C° 1.1 mm 1 mps 718 mmHg 96%

27 Octubre, Martes

Tiempo Temperatura Precipitaciones Viento Presión Humedad
00:00 +7°C° 1.1 mm 1 mps 718 mmHg 97%
01:00 +7°C° 1.1 mm 1 mps 718 mmHg 97%
02:00 +7°C° 1.1 mm 1 mps 718 mmHg 97%
03:00 +7°C° 1.1 mm 1 mps 718 mmHg 97%
04:00 +7°C° 1.1 mm 1 mps 718 mmHg 97%
05:00 +7°C° 0.7 mm 1 mps 719 mmHg 96%
06:00 +7°C° 0.7 mm 1 mps 719 mmHg 96%
07:00 +7°C° 0.7 mm 1 mps 720 mmHg 96%
08:00 +7°C° 0.5 mm 1 mps 720 mmHg 96%
09:00 +7°C° 0.5 mm 2 mps 720 mmHg 96%
10:00 +7°C° 0.5 mm 2 mps 720 mmHg 95%
11:00 +7°C° 0.8 mm 2 mps 720 mmHg 95%
12:00 +7°C° 0.8 mm 2 mps 721 mmHg 95%
13:00 +7°C° 0.8 mm 2 mps 721 mmHg 95%
14:00 +7°C° 0.6 mm 2 mps 721 mmHg 95%
15:00 +7°C° 0.6 mm 2 mps 721 mmHg 95%
16:00 +8°C° 0.6 mm 1 mps 722 mmHg 95%
17:00 +8°C° 0.3 mm 1 mps 722 mmHg 96%
18:00 +8°C° 0.3 mm 1 mps 722 mmHg 96%
19:00 +7°C° 0.3 mm 1 mps 723 mmHg 96%
20:00 +7°C° 0.1 mm 1 mps 723 mmHg 96%
21:00 +7°C° 0.1 mm 1 mps 724 mmHg 96%
22:00 +6°C° 0.1 mm 0 mps 724 mmHg 96%
23:00 +6°C° 0 mm 0 mps 724 mmHg 96%
Mostrar más

Necesitamos Su Consentimiento

Meteoprog y nuestros Proveedores de Servicios pueden almacenar y acceder a sus datos personales como cookies, identificadores de dispositivo u otras tecnologías similares de su dispositivo y procesar dichos datos para personalizar contenido y anuncios, además de ofrecer funciones de redes sociales y analizar el tráfico.

  • Almacenar y/o acceder a información en su dispositivo

    Se puede almacenar o acceder a cookies, identificadores de dispositivo u otra información de su dispositivo para los fines anteriormente indicados.

  • Anuncios y contenido personalizados, medición de anuncios y contenido, percepciones del público, y desarrollo de productos

    Los anuncios y el contenido pueden personalizarse en base a su perfil. Se pueden añadir más datos para personalizar mejor los anuncios y contenidos. Se puede medir el rendimiento de los anuncios y contenidos. Se puede obtener la percepción sobre el público que ha visto los anuncios y contenidos. Dichos datos pueden usarse para desarrollar o mejorar la experiencia del usuario, sistemas y software.

Al hacer clic en ‘Estoy De Acuerdo’ usted permitirá el uso de las cookies, identificadores de dispositivo, balizas web u otras tecnologías similares indicadas. Su configuración puede cambiarse desde el navegador de su dispositivo.

Para ciertos fines, los intereses legítimos pueden ser considerados por encima del consentimiento. Puede leer más sobre ello en nuestra Política de Privacidad y Cookies.